#timestamp,LO_Frequency,Hit,StdDev 
1507132815.4,286047000.9,N
1507132835.2,286047001.5,N
1507132855.0,286047000.8,N
1507132855.9,286047000.8,N
1507132875.8,286047000.1,N
1507132895.6,286047001.8,N
1507132915.4,286047000.3,N
1507132935.2,286046999.8,N
1507132955.1,286047000.7,N
1507132956.0,286047000.7,N
1507132975.8,286046998.7,N
1507132995.6,286046999.1,N
1507133015.5,286047000.3,N
1507133035.3,286046998.7,N
1507133055.1,286046998.7,N
1507133075.9,286046993.4,Y
1507133095.7,286046995.9,P
1507133115.5,286046994.2,N
1507133135.4,286046994.5,N
1507133155.2,286046995.2,N
1507133175.0,286046995.8,N
1507133175.9,286046995.8,N
1507133195.8,286046997.5,N
1507133215.6,286046994.9,Y
1507133235.4,286047000.5,P
1507133255.3,286046999.1,N
1507133275.1,286046999.0,N
1507133276.0,286046999.0,N
1507133295.8,286046997.8,N
1507133315.7,286046997.8,N
1507133335.5,286046996.4,N
1507133355.3,286046995.5,Y
1507133375.2,286046998.7,P
1507133395.9,286046995.4,P
1507133415.7,286046995.8,N
1507133435.6,286046996.3,N
1507133455.4,286046993.7,Y
1507133475.2,286046995.4,P
1507133495.1,286046995.9,P
1507133496.0,286046995.9,P
1507133515.8,286046993.4,Y
1507133535.6,286046996.7,P
1507133555.5,286046996.5,P
1507133575.3,286046999.5,N
1507133595.1,286046994.0,Y
1507133615.9,286046994.0,P
1507133635.7,286046994.2,P
1507133655.5,286046994.2,P
1507133675.4,286046992.6,Y
1507133695.2,286046996.1,P
1507133715.0,286046995.7,P
1507133715.9,286046995.7,P
1507133735.8,286046995.5,Y
1507133755.6,286046999.6,P
1507133775.4,286046996.3,N
1507133795.3,286046993.2,P
1507133815.1,286046994.1,N
1507133816.0,286046994.1,N
1507133835.8,286046994.6,N
1507133855.7,286046993.6,Y
1507133875.5,286046998.4,P
1507133895.3,286046995.2,P
1507133915.2,286046995.8,N
1507133935.9,286046990.9,Y
1507133955.7,286046991.0,P
1507133975.6,286046991.0,P
1507133995.4,286046988.7,P
1507134015.2,286046991.1,Y
1507134035.1,286046999.6,P
1507134036.0,286046999.6,N
1507134055.8,286047002.3,N
1507134075.6,286047001.3,N
1507134095.5,286047003.7,N
1507134115.3,286046998.1,N
1507134135.1,286046997.3,N
1507134155.9,286046999.6,N
1507134175.7,286046998.4,N
1507134195.5,286046998.5,N
1507134215.4,286047001.0,N
1507134235.2,286046999.6,N
1507134255.0,286047001.2,N
1507134255.9,286047001.2,N
1507134275.7,286047004.4,N
1507134295.6,286047001.4,N
1507134315.4,286047001.5,N
1507134335.2,286047002.6,N
1507134355.1,286047002.2,N
1507134356.0,286047002.2,N
1507134375.8,286047002.4,N
1507134395.6,286046998.7,N
1507134415.5,286046993.4,N
1507134435.3,286046995.9,N
1507134455.1,286046995.5,N
1507134475.9,286046995.2,N
1507134495.7,286046996.9,N
1507134515.5,286047000.1,N
1507134535.4,286046998.4,N
1507134555.2,286046997.0,N
1507134575.0,286046997.0,N
1507134575.9,286046997.0,N
1507134595.8,286046997.1,N
1507134615.6,286046997.6,N
1507134635.4,286047002.7,N
1507134655.2,286047002.6,N
1507134675.1,286047002.5,N
1507134676.0,286047002.5,N
1507134695.8,286046997.8,N
1507134715.6,286046997.1,N
1507134735.5,286046997.2,N
1507134755.3,286046997.9,N
1507134775.1,286046995.5,N
1507134795.9,286046993.8,N
1507134815.7,286046999.6,N
1507134835.5,286046998.5,N
1507134855.4,286046999.0,N
1507134875.2,286046998.1,N
1507134895.0,286046997.3,N
1507134895.9,286046997.3,N
1507134915.8,286046996.9,N
1507134935.6,286046997.5,N
1507134955.4,286046993.6,N
1507134975.3,286046996.0,N
1507134995.1,286046994.2,N
1507134996.0,286046994.2,N
1507135015.8,286046995.6,N
1507135035.6,286046995.4,N
1507135055.5,286046996.3,N
1507135075.3,286046993.5,N
1507135095.1,286046998.0,N
1507135115.9,286046996.5,N
1507135135.7,286046999.4,N
1507135155.5,286046997.1,N
1507135175.4,286046998.4,N
1507135195.2,286047000.9,N
1507135215.0,286047002.4,N
1507135215.9,286047002.4,N
1507135235.8,286046999.9,N
1507135255.6,286046999.6,N
1507135275.4,286046997.8,N
1507135295.3,286046995.2,N
1507135315.1,286046996.6,N
1507135316.0,286046996.6,N
1507135335.8,286046997.7,N
1507135355.7,286046996.6,N
1507135375.5,286046997.6,N
1507135395.3,286046995.7,N
1507135415.2,286046996.2,N
1507135435.9,286046996.0,N
1507135455.7,286046995.6,N
1507135475.5,286046997.4,N
1507135495.4,286046995.7,N
1507135515.2,286046993.7,N
1507135535.0,286046993.9,N
1507135535.9,286046993.9,N
1507135555.8,286046995.9,N
1507135575.6,286046995.0,N
1507135595.4,286046995.5,N
1507135615.3,286046995.5,N
1507135635.1,286046996.2,N
1507135636.0,286046996.2,N
1507135655.8,286046997.5,N
1507135675.7,286046997.6,N
1507135695.5,286046997.4,N
1507135715.3,286046997.7,N
1507135735.2,286046998.1,N
1507135755.9,286047000.9,N
1507135775.7,286047000.0,N
1507135795.6,286047002.8,N
1507135815.4,286047000.3,N
1507135835.2,286047000.6,N
1507135855.0,286046998.4,N
1507135855.9,286046998.4,N
1507135875.8,286047000.8,N
1507135895.6,286047000.1,N
1507135915.4,286047002.1,N
1507135935.3,286047001.9,N
1507135955.1,286047001.2,N
1507135975.8,286047000.5,N
1507135995.7,286047000.4,N
1507136015.5,286047000.8,N
1507136035.3,286047001.2,N
1507136055.2,286047001.0,N
1507136075.9,286047000.7,N
1507136095.7,286047000.1,N
1507136115.6,286047000.7,N
1507136135.4,286046998.8,N
1507136155.2,286046997.7,N
1507136175.1,286046999.4,N
1507136176.0,286046999.4,N
1507136195.8,286047002.7,N
1507136215.6,286047002.3,N
1507136235.4,286047002.3,N
1507136255.3,286046999.7,N
1507136275.1,286046998.1,N
1507136295.8,286047000.4,N
1507136315.7,286046995.4,Y
1507136335.5,286046996.4,P
1507136355.3,286046999.5,N
1507136375.2,286047001.1,N
1507136395.0,286047002.2,N
1507136395.9,286047002.2,N
